Time,TemperatureF,DewpointF,PressureIn,WindDirection,WindDirectionDegrees,WindSpeedMPH,WindSpeedGustMPH,Humidity,HourlyPrecipIn,Conditions,Clouds,dailyrainin,SoftwareType,DateUTC
2013-04-22 00:00:00,42.7,35.3,30.58,SE,132,0.0,3.0,75,0.00,,---,0.00,VWS V14.01,2013-04-22 04:00:00,
2013-04-22 00:01:00,42.7,35.3,30.58,SE,132,0.0,0.0,75,0.00,,---,0.00,VWS V14.01,2013-04-22 04:01:00,
2013-04-22 00:06:00,42.5,35.2,30.58,SE,132,0.0,1.0,75,0.00,,---,0.00,VWS V14.01,2013-04-22 04:06:00,
2013-04-22 00:11:00,42.4,35.4,30.58,SE,132,0.0,1.0,76,0.00,,---,0.00,VWS V14.01,2013-04-22 04:11:00,
2013-04-22 00:16:00,42.3,35.3,30.59,East,98,1.0,2.0,76,0.00,,---,0.00,VWS V14.01,2013-04-22 04:16:00,
2013-04-22 00:21:00,42.3,35.3,30.58,SE,124,0.0,2.0,76,0.00,,---,0.00,VWS V14.01,2013-04-22 04:21:00,
2013-04-22 00:26:00,42.3,35.3,30.58,SE,124,0.0,2.0,76,0.00,,---,0.00,VWS V14.01,2013-04-22 04:26:00,
2013-04-22 00:31:00,42.1,35.1,30.58,SE,124,0.0,0.0,76,0.00,,---,0.00,VWS V14.01,2013-04-22 04:31:00,
2013-04-22 00:36:00,42.1,35.4,30.58,SE,124,0.0,1.0,77,0.00,,---,0.00,VWS V14.01,2013-04-22 04:36:00,
2013-04-22 00:41:00,41.9,35.5,30.58,SE,124,0.0,1.0,78,0.00,,---,0.00,VWS V14.01,2013-04-22 04:41:00,
2013-04-22 00:46:00,41.8,35.8,30.58,East,99,0.0,2.0,79,0.00,,---,0.00,VWS V14.01,2013-04-22 04:46:00,
2013-04-22 00:50:00,41.7,35.7,30.58,East,99,0.0,2.0,79,0.00,,---,0.00,VWS V14.01,2013-04-22 04:50:00,
2013-04-22 00:55:00,41.4,36.0,30.57,East,99,0.0,2.0,81,0.00,,---,0.00,VWS V14.01,2013-04-22 04:55:00,
2013-04-22 01:00:00,41.1,36.0,30.57,East,99,0.0,0.0,82,0.00,,---,0.00,VWS V14.01,2013-04-22 05:00:00,
2013-04-22 01:06:00,40.8,35.7,30.57,East,99,0.0,0.0,82,0.00,,---,0.00,VWS V14.01,2013-04-22 05:06:00,
2013-04-22 01:11:00,40.6,35.8,30.57,East,99,0.0,0.0,83,0.00,,---,0.00,VWS V14.01,2013-04-22 05:11:00,
2013-04-22 01:16:00,40.3,35.6,30.57,East,99,0.0,0.0,83,0.00,,---,0.00,VWS V14.01,2013-04-22 05:16:00,
2013-04-22 01:21:00,40.1,35.1,30.57,East,99,0.0,0.0,82,0.00,,---,0.00,VWS V14.01,2013-04-22 05:21:00,
2013-04-22 01:26:00,40.3,35.2,30.57,East,99,0.0,0.0,82,0.00,,---,0.00,VWS V14.01,2013-04-22 05:26:00,
2013-04-22 01:31:00,40.2,35.2,30.57,East,99,0.0,0.0,82,0.00,,---,0.00,VWS V14.01,2013-04-22 05:31:00,
2013-04-22 01:36:00,39.8,35.1,30.56,East,99,0.0,0.0,83,0.00,,---,0.00,VWS V14.01,2013-04-22 05:36:00,
2013-04-22 01:41:00,39.5,35.1,30.56,East,99,0.0,0.0,84,0.00,,---,0.00,VWS V14.01,2013-04-22 05:41:00,
2013-04-22 01:46:00,39.2,35.1,30.56,East,99,0.0,0.0,85,0.00,,---,0.00,VWS V14.01,2013-04-22 05:46:00,
2013-04-22 01:51:00,39.1,35.3,30.56,East,99,0.0,0.0,86,0.00,,---,0.00,VWS V14.01,2013-04-22 05:51:00,
2013-04-22 01:56:00,38.9,35.4,30.56,East,99,0.0,0.0,87,0.00,,---,0.00,VWS V14.01,2013-04-22 05:56:00,
2013-04-22 02:01:00,38.8,35.3,30.56,East,99,0.0,0.0,87,0.00,,---,0.00,VWS V14.01,2013-04-22 06:01:00,
2013-04-22 02:06:00,38.7,35.2,30.56,East,99,0.0,0.0,87,0.00,,---,0.00,VWS V14.01,2013-04-22 06:06:00,
2013-04-22 02:11:00,38.6,35.1,30.56,East,99,0.0,0.0,87,0.00,,---,0.00,VWS V14.01,2013-04-22 06:11:00,
2013-04-22 02:16:00,38.4,34.9,30.56,East,99,0.0,0.0,87,0.00,,---,0.00,VWS V14.01,2013-04-22 06:16:00,
2013-04-22 02:21:00,38.1,34.9,30.56,East,99,0.0,0.0,88,0.00,,---,0.00,VWS V14.01,2013-04-22 06:21:00,
2013-04-22 02:26:00,38.1,34.9,30.56,East,99,0.0,0.0,88,0.00,,---,0.00,VWS V14.01,2013-04-22 06:26:00,
2013-04-22 02:31:00,37.9,34.4,30.56,East,99,0.0,0.0,87,0.00,,---,0.00,VWS V14.01,2013-04-22 06:31:00,
2013-04-22 02:36:00,37.8,34.6,30.56,East,99,0.0,0.0,88,0.00,,---,0.00,VWS V14.01,2013-04-22 06:36:00,
2013-04-22 02:41:00,37.7,34.2,30.56,East,99,0.0,0.0,87,0.00,,---,0.00,VWS V14.01,2013-04-22 06:41:00,
2013-04-22 02:46:00,37.6,34.4,30.56,East,99,0.0,0.0,88,0.00,,---,0.00,VWS V14.01,2013-04-22 06:46:00,
2013-04-22 02:51:00,37.5,34.6,30.56,East,99,0.0,0.0,89,0.00,,---,0.00,VWS V14.01,2013-04-22 06:51:00,
2013-04-22 02:56:00,37.3,34.4,30.57,East,99,0.0,0.0,89,0.00,,---,0.00,VWS V14.01,2013-04-22 06:56:00,
2013-04-22 03:01:00,37.1,34.4,30.57,East,99,0.0,0.0,90,0.00,,---,0.00,VWS V14.01,2013-04-22 07:01:00,
2013-04-22 03:06:00,37.1,34.4,30.57,East,99,0.0,0.0,90,0.00,,---,0.00,VWS V14.01,2013-04-22 07:06:00,
2013-04-22 03:11:00,37.0,34.3,30.57,East,99,0.0,0.0,90,0.00,,---,0.00,VWS V14.01,2013-04-22 07:11:00,
2013-04-22 03:16:00,36.8,33.9,30.57,East,99,0.0,0.0,89,0.00,,---,0.00,VWS V14.01,2013-04-22 07:16:00,
2013-04-22 03:21:00,36.7,34.0,30.57,East,99,0.0,0.0,90,0.00,,---,0.00,VWS V14.01,2013-04-22 07:21:00,
2013-04-22 03:26:00,36.4,33.8,30.56,East,99,0.0,0.0,90,0.00,,---,0.00,VWS V14.01,2013-04-22 07:26:00,
2013-04-22 03:31:00,36.2,33.6,30.56,East,99,0.0,0.0,90,0.00,,---,0.00,VWS V14.01,2013-04-22 07:31:00,
2013-04-22 03:36:00,36.1,33.7,30.56,East,99,0.0,0.0,91,0.00,,---,0.00,VWS V14.01,2013-04-22 07:36:00,
2013-04-22 03:41:00,35.8,33.4,30.56,East,99,0.0,0.0,91,0.00,,---,0.00,VWS V14.01,2013-04-22 07:41:00,
2013-04-22 03:46:00,35.6,33.2,30.56,East,99,0.0,0.0,91,0.00,,---,0.00,VWS V14.01,2013-04-22 07:46:00,
2013-04-22 03:51:00,35.4,33.0,30.56,East,99,0.0,0.0,91,0.00,,---,0.00,VWS V14.01,2013-04-22 07:51:00,
2013-04-22 03:56:00,35.2,32.8,30.56,East,99,0.0,0.0,91,0.00,,---,0.00,VWS V14.01,2013-04-22 07:56:00,
2013-04-22 04:01:00,35.1,32.7,30.55,East,99,0.0,0.0,91,0.00,,---,0.00,VWS V14.01,2013-04-22 08:01:00,
2013-04-22 04:06:00,35.0,32.6,30.55,East,99,0.0,0.0,91,0.00,,---,0.00,VWS V14.01,2013-04-22 08:06:00,
2013-04-22 04:11:00,34.8,32.5,30.55,East,99,0.0,0.0,91,0.00,,---,0.00,VWS V14.01,2013-04-22 08:11:00,
2013-04-22 04:16:00,34.8,32.7,30.55,East,99,0.0,0.0,92,0.00,,---,0.00,VWS V14.01,2013-04-22 08:16:00,
2013-04-22 04:21:00,34.7,32.6,30.55,East,99,0.0,0.0,92,0.00,,---,0.00,VWS V14.01,2013-04-22 08:21:00,
2013-04-22 04:26:00,34.6,32.5,30.54,East,99,0.0,0.0,92,0.00,,---,0.00,VWS V14.01,2013-04-22 08:26:00,
2013-04-22 04:31:00,34.5,32.4,30.54,East,99,0.0,0.0,92,0.00,,---,0.00,VWS V14.01,2013-04-22 08:31:00,
2013-04-22 04:36:00,34.4,32.3,30.55,East,99,0.0,0.0,92,0.00,,---,0.00,VWS V14.01,2013-04-22 08:36:00,
2013-04-22 04:41:00,34.3,32.5,30.55,East,99,0.0,0.0,93,0.00,,---,0.00,VWS V14.01,2013-04-22 08:41:00,
2013-04-22 04:46:00,34.2,32.4,30.54,East,99,0.0,0.0,93,0.00,,---,0.00,VWS V14.01,2013-04-22 08:46:00,
2013-04-22 04:51:00,34.1,32.3,30.54,East,99,0.0,0.0,93,0.00,,---,0.00,VWS V14.01,2013-04-22 08:51:00,
2013-04-22 04:56:00,33.9,32.1,30.54,East,99,0.0,0.0,93,0.00,,---,0.00,VWS V14.01,2013-04-22 08:56:00,
2013-04-22 05:01:00,33.9,32.1,30.54,East,99,0.0,0.0,93,0.00,,---,0.00,VWS V14.01,2013-04-22 09:01:00,
2013-04-22 05:06:00,33.8,32.0,30.54,East,99,0.0,0.0,93,0.00,,---,0.00,VWS V14.01,2013-04-22 09:06:00,
2013-04-22 05:11:00,33.7,31.9,30.54,East,99,0.0,0.0,93,0.00,,---,0.00,VWS V14.01,2013-04-22 09:11:00,
2013-04-22 05:16:00,33.7,31.9,30.54,East,99,0.0,0.0,93,0.00,,---,0.00,VWS V14.01,2013-04-22 09:16:00,
2013-04-22 05:21:00,33.7,32.2,30.54,East,99,0.0,0.0,94,0.00,,---,0.00,VWS V14.01,2013-04-22 09:21:00,
2013-04-22 05:26:00,33.7,32.2,30.54,East,99,0.0,0.0,94,0.00,,---,0.00,VWS V14.01,2013-04-22 09:26:00,
2013-04-22 05:31:00,33.6,31.8,30.55,East,99,0.0,0.0,93,0.00,,---,0.00,VWS V14.01,2013-04-22 09:31:00,
2013-04-22 05:36:00,33.6,32.1,30.54,East,99,0.0,0.0,94,0.00,,---,0.00,VWS V14.01,2013-04-22 09:36:00,
2013-04-22 05:41:00,33.6,32.1,30.54,East,99,0.0,0.0,94,0.00,,---,0.00,VWS V14.01,2013-04-22 09:41:00,
2013-04-22 05:46:00,33.6,32.1,30.54,East,99,0.0,0.0,94,0.00,,---,0.00,VWS V14.01,2013-04-22 09:46:00,
2013-04-22 05:51:00,33.4,31.9,30.54,East,99,0.0,0.0,94,0.00,,---,0.00,VWS V14.01,2013-04-22 09:51:00,
2013-04-22 05:56:00,33.3,31.8,30.55,East,99,0.0,0.0,94,0.00,,---,0.00,VWS V14.01,2013-04-22 09:56:00,
2013-04-22 06:01:00,33.2,31.7,30.54,East,99,0.0,0.0,94,0.00,,---,0.00,VWS V14.01,2013-04-22 10:01:00,
2013-04-22 06:06:00,33.1,31.6,30.55,East,99,0.0,0.0,94,0.00,,---,0.00,VWS V14.01,2013-04-22 10:06:00,
2013-04-22 06:11:00,33.2,31.7,30.55,East,99,0.0,0.0,94,0.00,,---,0.00,VWS V14.01,2013-04-22 10:11:00,
2013-04-22 06:16:00,33.2,31.7,30.55,East,99,0.0,0.0,94,0.00,,---,0.00,VWS V14.01,2013-04-22 10:16:00,
2013-04-22 06:21:00,33.2,31.7,30.55,East,99,0.0,0.0,94,0.00,,---,0.00,VWS V14.01,2013-04-22 10:21:00,
2013-04-22 06:26:00,33.1,31.6,30.55,East,99,1.0,1.0,94,0.00,,---,0.00,VWS V14.01,2013-04-22 10:26:00,
2013-04-22 06:31:00,33.3,31.8,30.55,East,99,0.0,0.0,94,0.00,,---,0.00,VWS V14.01,2013-04-22 10:31:00,
2013-04-22 06:36:00,33.5,32.0,30.55,East,99,0.0,0.0,94,0.00,,---,0.00,VWS V14.01,2013-04-22 10:36:00,
2013-04-22 06:41:00,33.8,32.5,30.56,East,99,0.0,0.0,95,0.00,,---,0.00,VWS V14.01,2013-04-22 10:41:00,
2013-04-22 06:46:00,34.1,32.8,30.55,East,99,0.0,0.0,95,0.00,,---,0.00,VWS V14.01,2013-04-22 10:46:00,
2013-04-22 06:51:00,34.3,33.0,30.56,East,99,0.0,0.0,95,0.00,,---,0.00,VWS V14.01,2013-04-22 10:51:00,
2013-04-22 06:56:00,34.6,33.3,30.56,East,99,0.0,0.0,95,0.00,,---,0.00,VWS V14.01,2013-04-22 10:56:00,
2013-04-22 07:00:00,34.8,33.5,30.55,East,99,0.0,0.0,95,0.00,,---,0.00,VWS V14.01,2013-04-22 11:00:00,
2013-04-22 07:06:00,35.0,33.7,30.55,East,99,0.0,0.0,95,0.00,,---,0.00,VWS V14.01,2013-04-22 11:06:00,
2013-04-22 07:11:00,35.4,34.1,30.55,East,99,0.0,0.0,95,0.00,,---,0.00,VWS V14.01,2013-04-22 11:11:00,
2013-04-22 07:16:00,36.4,35.1,30.56,East,99,0.0,0.0,95,0.00,,---,0.00,VWS V14.01,2013-04-22 11:16:00,
2013-04-22 07:21:00,37.2,35.9,30.56,East,99,0.0,1.0,95,0.00,,---,0.00,VWS V14.01,2013-04-22 11:21:00,
2013-04-22 07:25:00,37.9,36.3,30.56,East,99,0.0,1.0,94,0.00,,---,0.00,VWS V14.01,2013-04-22 11:25:00,
2013-04-22 07:30:00,38.5,36.7,30.56,East,99,0.0,1.0,93,0.00,,---,0.00,VWS V14.01,2013-04-22 11:30:00,
2013-04-22 07:34:00,39.3,37.2,30.56,East,99,0.0,1.0,92,0.00,,---,0.00,VWS V14.01,2013-04-22 11:34:00,
2013-04-22 07:39:00,40.5,37.5,30.56,East,99,0.0,1.0,89,0.00,,---,0.00,VWS V14.01,2013-04-22 11:39:00,
2013-04-22 07:44:00,41.3,38.0,30.56,East,84,0.0,1.0,88,0.00,,---,0.00,VWS V14.01,2013-04-22 11:44:00,
2013-04-22 07:49:00,42.4,38.5,30.57,East,86,0.0,8.0,86,0.00,,---,0.00,VWS V14.01,2013-04-22 11:49:00,
2013-04-22 07:54:00,43.2,38.7,30.57,SE,129,3.0,8.0,84,0.00,,---,0.00,VWS V14.01,2013-04-22 11:54:00,
2013-04-22 07:59:00,43.8,39.3,30.57,NNE,33,1.0,8.0,84,0.00,,---,0.00,VWS V14.01,2013-04-22 11:59:00,
2013-04-22 08:04:00,44.7,39.2,30.57,ESE,108,5.0,11.0,81,0.00,,---,0.00,VWS V14.01,2013-04-22 12:04:00,
2013-04-22 08:09:00,44.7,38.9,30.57,SE,128,0.0,13.0,80,0.00,,---,0.00,VWS V14.01,2013-04-22 12:09:00,
2013-04-22 08:14:00,44.6,38.8,30.57,NNW,346,5.0,13.0,80,0.00,,---,0.00,VWS V14.01,2013-04-22 12:14:00,
2013-04-22 08:19:00,44.7,38.9,30.57,ESE,121,3.0,13.0,80,0.00,,---,0.00,VWS V14.01,2013-04-22 12:19:00,
2013-04-22 08:24:00,45.0,39.2,30.56,NNE,17,2.0,13.0,80,0.00,,---,0.00,VWS V14.01,2013-04-22 12:24:00,
2013-04-22 08:29:00,45.2,39.4,30.56,East,91,1.0,13.0,80,0.00,,---,0.00,VWS V14.01,2013-04-22 12:29:00,
2013-04-22 08:34:00,45.3,39.2,30.56,ENE,76,3.0,11.0,79,0.00,,---,0.00,VWS V14.01,2013-04-22 12:34:00,
2013-04-22 08:39:00,45.4,39.0,30.56,ESE,113,2.0,11.0,78,0.00,,---,0.00,VWS V14.01,2013-04-22 12:39:00,
2013-04-22 08:44:00,45.8,39.0,30.56,NE,39,4.0,11.0,77,0.00,,---,0.00,VWS V14.01,2013-04-22 12:44:00,
2013-04-22 08:49:00,45.8,39.0,30.56,ENE,69,4.0,11.0,77,0.00,,---,0.00,VWS V14.01,2013-04-22 12:49:00,
2013-04-22 08:54:00,45.8,38.7,30.56,NNW,340,2.0,11.0,76,0.00,,---,0.00,VWS V14.01,2013-04-22 12:54:00,
2013-04-22 08:59:00,45.7,38.2,30.56,NE,40,4.0,11.0,75,0.00,,---,0.00,VWS V14.01,2013-04-22 12:59:00,
2013-04-22 09:04:00,45.6,38.2,30.56,ESE,123,9.0,13.0,75,0.00,,---,0.00,VWS V14.01,2013-04-22 13:04:00,
2013-04-22 09:09:00,45.9,38.4,30.56,SE,143,0.0,13.0,75,0.00,,---,0.00,VWS V14.01,2013-04-22 13:09:00,
2013-04-22 09:14:00,46.1,38.6,30.56,North,1,0.0,13.0,75,0.00,,---,0.00,VWS V14.01,2013-04-22 13:14:00,
2013-04-22 09:19:00,46.4,38.6,30.56,NNE,23,1.0,13.0,74,0.00,,---,0.00,VWS V14.01,2013-04-22 13:19:00,
2013-04-22 09:24:00,46.9,38.7,30.56,NNE,13,2.0,13.0,73,0.00,,---,0.00,VWS V14.01,2013-04-22 13:24:00,
2013-04-22 09:29:00,46.8,38.6,30.56,NE,56,2.0,13.0,73,0.00,,---,0.00,VWS V14.01,2013-04-22 13:29:00,
2013-04-22 09:34:00,46.7,38.2,30.56,NNE,27,3.0,10.0,72,0.00,,---,0.00,VWS V14.01,2013-04-22 13:34:00,
2013-04-22 09:39:00,46.5,38.3,30.56,NE,35,1.0,10.0,73,0.00,,---,0.00,VWS V14.01,2013-04-22 13:39:00,
2013-04-22 09:44:00,46.6,38.8,30.56,WSW,251,2.0,10.0,74,0.00,,---,0.00,VWS V14.01,2013-04-22 13:44:00,
2013-04-22 09:49:00,47.0,38.8,30.56,ENE,68,2.0,10.0,73,0.00,,---,0.00,VWS V14.01,2013-04-22 13:49:00,
2013-04-22 09:54:00,47.2,38.7,30.56,East,81,1.0,10.0,72,0.00,,---,0.00,VWS V14.01,2013-04-22 13:54:00,
2013-04-22 09:59:00,47.4,38.1,30.56,East,83,4.0,10.0,70,0.00,,---,0.00,VWS V14.01,2013-04-22 13:59:00,
2013-04-22 10:04:00,47.7,38.8,30.56,ESE,122,1.0,5.0,71,0.00,,---,0.00,VWS V14.01,2013-04-22 14:04:00,
2013-04-22 10:09:00,47.6,38.7,30.56,ESE,113,1.0,12.0,71,0.00,,---,0.00,VWS V14.01,2013-04-22 14:09:00,
2013-04-22 10:14:00,48.0,38.3,30.56,NW,326,6.0,12.0,69,0.00,,---,0.00,VWS V14.01,2013-04-22 14:14:00,
2013-04-22 10:19:00,47.6,38.3,30.56,NNE,33,1.0,12.0,70,0.00,,---,0.00,VWS V14.01,2013-04-22 14:19:00,
2013-04-22 10:24:00,48.1,39.2,30.55,North,359,4.0,12.0,71,0.00,,---,0.00,VWS V14.01,2013-04-22 14:24:00,
2013-04-22 10:29:00,48.1,38.8,30.56,ENE,57,1.0,12.0,70,0.00,,---,0.00,VWS V14.01,2013-04-22 14:29:00,
2013-04-22 10:34:00,48.5,38.4,30.56,NNW,328,2.0,10.0,68,0.00,,---,0.00,VWS V14.01,2013-04-22 14:34:00,
2013-04-22 10:39:00,49.5,38.6,30.56,NE,56,1.0,10.0,66,0.00,,---,0.00,VWS V14.01,2013-04-22 14:39:00,
2013-04-22 10:44:00,49.5,39.0,30.56,NNW,335,1.0,10.0,67,0.00,,---,0.00,VWS V14.01,2013-04-22 14:44:00,
2013-04-22 10:49:00,49.7,39.2,30.56,East,98,2.0,10.0,67,0.00,,---,0.00,VWS V14.01,2013-04-22 14:49:00,
2013-04-22 10:54:00,50.0,38.7,30.55,North,350,3.0,10.0,65,0.00,,---,0.00,VWS V14.01,2013-04-22 14:54:00,
2013-04-22 10:59:00,48.9,37.7,30.56,NE,51,2.0,10.0,65,0.00,,---,0.00,VWS V14.01,2013-04-22 14:59:00,
2013-04-22 11:04:00,48.8,37.6,30.56,ENE,72,1.0,8.0,65,0.00,,---,0.00,VWS V14.01,2013-04-22 15:04:00,
2013-04-22 11:09:00,49.4,37.3,30.56,NE,56,3.0,8.0,63,0.00,,---,0.00,VWS V14.01,2013-04-22 15:09:00,
2013-04-22 11:14:00,49.0,37.4,30.56,NE,41,4.0,8.0,64,0.00,,---,0.00,VWS V14.01,2013-04-22 15:14:00,
2013-04-22 11:19:00,48.9,37.3,30.56,SE,124,0.0,8.0,64,0.00,,---,0.00,VWS V14.01,2013-04-22 15:19:00,
2013-04-22 11:24:00,49.6,37.9,30.55,NE,43,1.0,8.0,64,0.00,,---,0.00,VWS V14.01,2013-04-22 15:24:00,
2013-04-22 11:29:00,49.9,38.6,30.55,ESE,102,6.0,9.0,65,0.00,,---,0.00,VWS V14.01,2013-04-22 15:29:00,
2013-04-22 11:34:00,49.8,37.7,30.55,NNW,341,1.0,8.0,63,0.00,,---,0.00,VWS V14.01,2013-04-22 15:34:00,
2013-04-22 11:39:00,49.8,37.7,30.54,NNW,348,2.0,9.0,63,0.00,,---,0.00,VWS V14.01,2013-04-22 15:39:00,
2013-04-22 11:44:00,49.7,37.6,30.54,ESE,117,4.0,9.0,63,0.00,,---,0.00,VWS V14.01,2013-04-22 15:44:00,
2013-04-22 11:49:00,50.3,39.4,30.54,NNW,330,2.0,9.0,66,0.00,,---,0.00,VWS V14.01,2013-04-22 15:49:00,
2013-04-22 11:54:00,50.6,38.1,30.54,North,354,3.0,9.0,62,0.00,,---,0.00,VWS V14.01,2013-04-22 15:54:00,
2013-04-22 11:59:00,50.6,38.5,30.54,NE,51,1.0,9.0,63,0.00,,---,0.00,VWS V14.01,2013-04-22 15:59:00,
2013-04-22 12:04:00,50.6,37.2,30.54,ENE,75,3.0,4.0,60,0.00,,---,0.00,VWS V14.01,2013-04-22 16:04:00,
2013-04-22 12:09:00,51.0,38.5,30.54,East,82,4.0,6.0,62,0.00,,---,0.00,VWS V14.01,2013-04-22 16:09:00,
2013-04-22 12:14:00,51.3,39.2,30.53,ESE,119,2.0,6.0,63,0.00,,---,0.00,VWS V14.01,2013-04-22 16:14:00,
2013-04-22 12:19:00,51.0,38.0,30.53,East,91,4.0,9.0,61,0.00,,---,0.00,VWS V14.01,2013-04-22 16:19:00,
2013-04-22 12:24:00,52.5,41.1,30.53,NNW,348,2.0,9.0,65,0.00,,---,0.00,VWS V14.01,2013-04-22 16:24:00,
2013-04-22 12:29:00,53.3,39.3,30.53,ENE,60,0.0,9.0,59,0.00,,---,0.00,VWS V14.01,2013-04-22 16:29:00,
2013-04-22 12:34:00,52.1,38.2,30.53,NE,41,3.0,8.0,59,0.00,,---,0.00,VWS V14.01,2013-04-22 16:34:00,
2013-04-22 12:39:00,51.3,37.9,30.53,ESE,113,3.0,8.0,60,0.00,,---,0.00,VWS V14.01,2013-04-22 16:39:00,
2013-04-22 12:44:00,52.4,38.5,30.53,ESE,109,2.0,8.0,59,0.00,,---,0.00,VWS V14.01,2013-04-22 16:44:00,
2013-04-22 12:49:00,52.1,38.2,30.52,NW,308,0.0,8.0,59,0.00,,---,0.00,VWS V14.01,2013-04-22 16:49:00,
2013-04-22 12:54:00,51.4,38.0,30.52,East,82,1.0,8.0,60,0.00,,---,0.00,VWS V14.01,2013-04-22 16:54:00,
2013-04-22 12:59:00,51.4,38.4,30.52,ESE,110,5.0,8.0,61,0.00,,---,0.00,VWS V14.01,2013-04-22 16:59:00,
2013-04-22 13:04:00,51.5,38.9,30.52,ESE,103,0.0,6.0,62,0.00,,---,0.00,VWS V14.01,2013-04-22 17:04:00,
2013-04-22 13:09:00,51.9,38.5,30.51,North,10,3.0,6.0,60,0.00,,---,0.00,VWS V14.01,2013-04-22 17:09:00,
2013-04-22 13:14:00,52.0,38.1,30.51,SE,146,3.0,6.0,59,0.00,,---,0.00,VWS V14.01,2013-04-22 17:14:00,
2013-04-22 13:19:00,52.8,38.5,30.51,ESE,105,4.0,6.0,58,0.00,,---,0.00,VWS V14.01,2013-04-22 17:19:00,
2013-04-22 13:24:00,52.8,38.5,30.51,NNE,20,4.0,9.0,58,0.00,,---,0.00,VWS V14.01,2013-04-22 17:24:00,
2013-04-22 13:29:00,52.4,38.1,30.50,NE,51,1.0,9.0,58,0.00,,---,0.00,VWS V14.01,2013-04-22 17:29:00,
2013-04-22 13:34:00,52.9,39.8,30.50,ENE,58,1.0,6.0,61,0.00,,---,0.00,VWS V14.01,2013-04-22 17:34:00,
2013-04-22 13:39:00,52.4,38.1,30.50,ESE,119,5.0,12.0,58,0.00,,---,0.00,VWS V14.01,2013-04-22 17:39:00,
2013-04-22 13:44:00,52.4,38.1,30.50,NNE,19,1.0,12.0,58,0.00,,---,0.00,VWS V14.01,2013-04-22 17:44:00,
2013-04-22 13:49:00,53.3,39.3,30.50,ENE,62,4.0,12.0,59,0.00,,---,0.00,VWS V14.01,2013-04-22 17:49:00,
2013-04-22 13:54:00,52.9,37.7,30.50,NNW,347,1.0,12.0,56,0.00,,---,0.00,VWS V14.01,2013-04-22 17:54:00,
2013-04-22 13:59:00,52.8,38.5,30.50,ENE,64,3.0,12.0,58,0.00,,---,0.00,VWS V14.01,2013-04-22 17:59:00,
2013-04-22 14:04:00,52.7,38.3,30.50,ENE,64,1.0,8.0,58,0.00,,---,0.00,VWS V14.01,2013-04-22 18:04:00,
2013-04-22 14:09:00,52.9,37.7,30.49,East,80,1.0,8.0,56,0.00,,---,0.00,VWS V14.01,2013-04-22 18:09:00,
2013-04-22 14:14:00,53.4,38.6,30.49,NNE,13,3.0,8.0,57,0.00,,---,0.00,VWS V14.01,2013-04-22 18:14:00,
2013-04-22 14:19:00,54.1,37.8,30.49,NNW,347,2.0,8.0,54,0.00,,---,0.00,VWS V14.01,2013-04-22 18:19:00,
2013-04-22 14:24:00,55.1,38.3,30.49,East,94,2.0,8.0,53,0.00,,---,0.00,VWS V14.01,2013-04-22 18:24:00,
2013-04-22 14:29:00,54.1,37.8,30.49,West,259,2.0,13.0,54,0.00,,---,0.00,VWS V14.01,2013-04-22 18:29:00,
2013-04-22 14:34:00,53.8,38.0,30.48,SE,124,4.0,7.0,55,0.00,,---,0.00,VWS V14.01,2013-04-22 18:34:00,
2013-04-22 14:39:00,55.1,40.2,30.48,North,352,4.0,8.0,57,0.00,,---,0.00,VWS V14.01,2013-04-22 18:39:00,
2013-04-22 14:44:00,54.5,37.2,30.48,NE,51,2.0,8.0,52,0.00,,---,0.00,VWS V14.01,2013-04-22 18:44:00,
2013-04-22 14:49:00,53.8,37.6,30.48,ESE,106,5.0,8.0,54,0.00,,---,0.00,VWS V14.01,2013-04-22 18:49:00,
2013-04-22 14:54:00,54.6,38.3,30.48,SE,124,4.0,8.0,54,0.00,,---,0.00,VWS V14.01,2013-04-22 18:54:00,
2013-04-22 14:59:00,54.9,37.6,30.47,NE,35,4.0,8.0,52,0.00,,---,0.00,VWS V14.01,2013-04-22 18:59:00,
2013-04-22 15:04:00,55.0,40.1,30.47,ESE,117,0.0,6.0,57,0.00,,---,0.00,VWS V14.01,2013-04-22 19:04:00,
2013-04-22 15:09:00,55.2,38.4,30.47,ESE,115,5.0,7.0,53,0.00,,---,0.00,VWS V14.01,2013-04-22 19:09:00,
2013-04-22 15:14:00,54.0,37.3,30.47,NNE,26,1.0,12.0,53,0.00,,---,0.00,VWS V14.01,2013-04-22 19:14:00,
2013-04-22 15:19:00,54.5,38.7,30.46,East,98,4.0,12.0,55,0.00,,---,0.00,VWS V14.01,2013-04-22 19:19:00,
2013-04-22 15:24:00,54.1,38.8,30.46,NE,49,1.0,12.0,56,0.00,,---,0.00,VWS V14.01,2013-04-22 19:24:00,
2013-04-22 15:29:00,54.5,38.2,30.45,SE,146,2.0,12.0,54,0.00,,---,0.00,VWS V14.01,2013-04-22 19:29:00,
2013-04-22 15:34:00,54.8,39.9,30.45,North,360,2.0,5.0,57,0.00,,---,0.00,VWS V14.01,2013-04-22 19:34:00,
2013-04-22 15:39:00,54.7,38.4,30.45,ESE,122,1.0,9.0,54,0.00,,---,0.00,VWS V14.01,2013-04-22 19:39:00,
2013-04-22 15:43:00,54.5,40.0,30.45,NE,41,1.0,9.0,58,0.00,,---,0.00,VWS V14.01,2013-04-22 19:43:00,
2013-04-22 15:48:00,54.6,38.8,30.45,NNE,19,2.0,9.0,55,0.00,,---,0.00,VWS V14.01,2013-04-22 19:48:00,
2013-04-22 15:53:00,54.5,39.6,30.45,ENE,68,2.0,9.0,57,0.00,,---,0.00,VWS V14.01,2013-04-22 19:53:00,
2013-04-22 15:58:00,55.0,38.2,30.44,ENE,77,3.0,9.0,53,0.00,,---,0.00,VWS V14.01,2013-04-22 19:58:00,
2013-04-22 16:03:00,54.6,39.2,30.44,NE,41,1.0,4.0,56,0.00,,---,0.00,VWS V14.01,2013-04-22 20:03:00,
2013-04-22 16:08:00,54.4,38.6,30.44,East,94,5.0,6.0,55,0.00,,---,0.00,VWS V14.01,2013-04-22 20:08:00,
2013-04-22 16:13:00,55.2,38.9,30.44,ESE,108,3.0,9.0,54,0.00,,---,0.00,VWS V14.01,2013-04-22 20:13:00,
2013-04-22 16:18:00,55.0,38.2,30.44,ESE,114,2.0,11.0,53,0.00,,---,0.00,VWS V14.01,2013-04-22 20:18:00,
2013-04-22 16:23:00,55.0,38.7,30.44,NE,50,1.0,11.0,54,0.00,,---,0.00,VWS V14.01,2013-04-22 20:23:00,
2013-04-22 16:28:00,54.5,38.7,30.43,North,4,4.0,11.0,55,0.00,,---,0.00,VWS V14.01,2013-04-22 20:28:00,
2013-04-22 16:33:00,54.6,37.8,30.43,North,359,4.0,5.0,53,0.00,,---,0.00,VWS V14.01,2013-04-22 20:33:00,
2013-04-22 16:38:00,54.5,38.2,30.43,ESE,116,4.0,8.0,54,0.00,,---,0.00,VWS V14.01,2013-04-22 20:38:00,
2013-04-22 16:43:00,54.4,38.1,30.43,NW,326,3.0,8.0,54,0.00,,---,0.00,VWS V14.01,2013-04-22 20:43:00,
2013-04-22 16:48:00,54.4,39.0,30.43,ESE,118,1.0,8.0,56,0.00,,---,0.00,VWS V14.01,2013-04-22 20:48:00,
2013-04-22 16:53:00,54.1,38.8,30.43,East,96,2.0,8.0,56,0.00,,---,0.00,VWS V14.01,2013-04-22 20:53:00,
2013-04-22 16:58:00,54.3,38.5,30.43,ENE,77,1.0,8.0,55,0.00,,---,0.00,VWS V14.01,2013-04-22 20:58:00,
2013-04-22 17:03:00,54.3,39.4,30.43,NNE,21,1.0,5.0,57,0.00,,---,0.00,VWS V14.01,2013-04-22 21:03:00,
2013-04-22 17:08:00,54.9,39.0,30.42,East,93,3.0,5.0,55,0.00,,---,0.00,VWS V14.01,2013-04-22 21:08:00,
2013-04-22 17:13:00,54.1,39.2,30.42,NNE,31,3.0,10.0,57,0.00,,---,0.00,VWS V14.01,2013-04-22 21:13:00,
2013-04-22 17:18:00,53.7,39.3,30.42,East,92,3.0,10.0,58,0.00,,---,0.00,VWS V14.01,2013-04-22 21:18:00,
2013-04-22 17:23:00,53.6,37.8,30.42,ESE,117,6.0,10.0,55,0.00,,---,0.00,VWS V14.01,2013-04-22 21:23:00,
2013-04-22 17:28:00,53.8,38.5,30.42,NE,47,3.0,10.0,56,0.00,,---,0.00,VWS V14.01,2013-04-22 21:28:00,
2013-04-22 17:33:00,54.0,38.7,30.43,ENE,63,0.0,4.0,56,0.00,,---,0.00,VWS V14.01,2013-04-22 21:33:00,
2013-04-22 17:38:00,53.4,37.7,30.43,East,98,4.0,6.0,55,0.00,,---,0.00,VWS V14.01,2013-04-22 21:38:00,
2013-04-22 17:43:00,53.1,37.8,30.43,North,10,2.0,6.0,56,0.00,,---,0.00,VWS V14.01,2013-04-22 21:43:00,
2013-04-22 17:48:00,53.4,38.6,30.43,ENE,63,2.0,12.0,57,0.00,,---,0.00,VWS V14.01,2013-04-22 21:48:00,
2013-04-22 17:53:00,53.9,37.7,30.43,ESE,103,1.0,12.0,54,0.00,,---,0.00,VWS V14.01,2013-04-22 21:53:00,
2013-04-22 17:58:00,54.1,37.8,30.43,SE,129,3.0,12.0,54,0.00,,---,0.00,VWS V14.01,2013-04-22 21:58:00,
2013-04-22 18:03:00,54.4,37.6,30.42,SE,141,7.0,10.0,53,0.00,,---,0.00,VWS V14.01,2013-04-22 22:03:00,
2013-04-22 18:08:00,53.9,39.0,30.42,North,1,2.0,10.0,57,0.00,,---,0.00,VWS V14.01,2013-04-22 22:08:00,
2013-04-22 18:13:00,53.3,37.6,30.42,ESE,109,6.0,10.0,55,0.00,,---,0.00,VWS V14.01,2013-04-22 22:13:00,
2013-04-22 18:18:00,52.8,38.0,30.42,East,88,2.0,10.0,57,0.00,,---,0.00,VWS V14.01,2013-04-22 22:18:00,
2013-04-22 18:23:00,52.9,38.1,30.41,ESE,113,8.0,10.0,57,0.00,,---,0.00,VWS V14.01,2013-04-22 22:23:00,
2013-04-22 18:28:00,53.1,38.7,30.41,ENE,68,0.0,10.0,58,0.00,,---,0.00,VWS V14.01,2013-04-22 22:28:00,
2013-04-22 18:33:00,53.2,37.9,30.41,NE,35,2.0,4.0,56,0.00,,---,0.00,VWS V14.01,2013-04-22 22:33:00,
2013-04-22 18:38:00,53.3,38.5,30.41,ENE,77,2.0,5.0,57,0.00,,---,0.00,VWS V14.01,2013-04-22 22:38:00,
2013-04-22 18:43:00,52.9,37.7,30.41,NE,46,2.0,8.0,56,0.00,,---,0.00,VWS V14.01,2013-04-22 22:43:00,
2013-04-22 18:48:00,52.4,38.1,30.42,ENE,65,1.0,10.0,58,0.00,,---,0.00,VWS V14.01,2013-04-22 22:48:00,
2013-04-22 18:53:00,52.2,37.4,30.42,SE,134,7.0,10.0,57,0.00,,---,0.00,VWS V14.01,2013-04-22 22:53:00,
2013-04-22 18:58:00,52.2,37.4,30.42,SE,127,2.0,10.0,57,0.00,,---,0.00,VWS V14.01,2013-04-22 22:58:00,
2013-04-22 19:03:00,52.2,37.9,30.41,ESE,102,1.0,4.0,58,0.00,,---,0.00,VWS V14.01,2013-04-22 23:03:00,
2013-04-22 19:08:00,52.3,37.5,30.42,NE,49,3.0,9.0,57,0.00,,---,0.00,VWS V14.01,2013-04-22 23:08:00,
2013-04-22 19:13:00,52.3,38.0,30.41,NNE,13,1.0,11.0,58,0.00,,---,0.00,VWS V14.01,2013-04-22 23:13:00,
2013-04-22 19:18:00,52.2,38.3,30.42,North,359,2.0,11.0,59,0.00,,---,0.00,VWS V14.01,2013-04-22 23:18:00,
2013-04-22 19:23:00,52.0,37.7,30.42,East,95,7.0,11.0,58,0.00,,---,0.00,VWS V14.01,2013-04-22 23:23:00,
2013-04-22 19:28:00,51.8,37.9,30.41,East,89,2.0,11.0,59,0.00,,---,0.00,VWS V14.01,2013-04-22 23:28:00,
2013-04-22 19:33:00,51.6,37.8,30.42,ENE,61,1.0,6.0,59,0.00,,---,0.00,VWS V14.01,2013-04-22 23:33:00,
2013-04-22 19:38:00,51.6,37.8,30.42,NE,39,3.0,10.0,59,0.00,,---,0.00,VWS V14.01,2013-04-22 23:38:00,
2013-04-22 19:43:00,51.5,37.7,30.42,NNE,25,0.0,10.0,59,0.00,,---,0.00,VWS V14.01,2013-04-22 23:43:00,
2013-04-22 19:48:00,51.4,38.0,30.42,East,84,3.0,10.0,60,0.00,,---,0.00,VWS V14.01,2013-04-22 23:48:00,
2013-04-22 19:53:00,51.3,37.9,30.42,East,89,0.0,10.0,60,0.00,,---,0.00,VWS V14.01,2013-04-22 23:53:00,
2013-04-22 19:58:00,51.2,37.4,30.42,ENE,67,1.0,10.0,59,0.00,,---,0.00,VWS V14.01,2013-04-22 23:58:00,
2013-04-22 20:03:00,51.1,37.7,30.42,ESE,115,1.0,5.0,60,0.00,,---,0.00,VWS V14.01,2013-04-23 00:03:00,
2013-04-22 20:08:00,51.0,37.6,30.42,ENE,67,2.0,5.0,60,0.00,,---,0.00,VWS V14.01,2013-04-23 00:08:00,
2013-04-22 20:13:00,51.0,37.6,30.42,East,94,2.0,8.0,60,0.00,,---,0.00,VWS V14.01,2013-04-23 00:13:00,
2013-04-22 20:18:00,51.0,37.6,30.42,NE,56,0.0,8.0,60,0.00,,---,0.00,VWS V14.01,2013-04-23 00:18:00,
2013-04-22 20:23:00,50.8,38.3,30.42,East,97,1.0,8.0,62,0.00,,---,0.00,VWS V14.01,2013-04-23 00:23:00,
2013-04-22 20:28:00,50.8,37.8,30.42,NE,49,1.0,8.0,61,0.00,,---,0.00,VWS V14.01,2013-04-23 00:28:00,
2013-04-22 20:33:00,50.8,38.3,30.42,ESE,109,2.0,3.0,62,0.00,,---,0.00,VWS V14.01,2013-04-23 00:33:00,
2013-04-22 20:38:00,50.8,37.8,30.43,NNE,29,2.0,6.0,61,0.00,,---,0.00,VWS V14.01,2013-04-23 00:38:00,
2013-04-22 20:43:00,50.6,37.7,30.43,East,92,3.0,7.0,61,0.00,,---,0.00,VWS V14.01,2013-04-23 00:43:00,
2013-04-22 20:49:00,50.6,37.7,30.42,ENE,60,1.0,7.0,61,0.00,,---,0.00,VWS V14.01,2013-04-23 00:49:00,
2013-04-22 20:54:00,50.5,37.6,30.42,ENE,58,0.0,7.0,61,0.00,,---,0.00,VWS V14.01,2013-04-23 00:54:00,
2013-04-22 20:59:00,50.4,37.9,30.43,East,96,0.0,7.0,62,0.00,,---,0.00,VWS V14.01,2013-04-23 00:59:00,
2013-04-22 21:04:00,50.1,38.0,30.43,NE,56,2.0,2.0,63,0.00,,---,0.00,VWS V14.01,2013-04-23 01:04:00,
2013-04-22 21:09:00,49.9,38.2,30.43,ESE,102,0.0,7.0,64,0.00,,---,0.00,VWS V14.01,2013-04-23 01:09:00,
2013-04-22 21:14:00,49.8,37.7,30.43,ESE,102,1.0,7.0,63,0.00,,---,0.00,VWS V14.01,2013-04-23 01:14:00,
2013-04-22 21:19:00,49.7,37.6,30.43,East,90,1.0,7.0,63,0.00,,---,0.00,VWS V14.01,2013-04-23 01:19:00,
2013-04-22 21:24:00,49.7,38.0,30.43,ESE,108,2.0,8.0,64,0.00,,---,0.00,VWS V14.01,2013-04-23 01:24:00,
2013-04-22 21:29:00,49.6,37.5,30.43,ENE,61,0.0,8.0,63,0.00,,---,0.00,VWS V14.01,2013-04-23 01:29:00,
2013-04-22 21:34:00,49.5,37.8,30.43,East,101,0.0,2.0,64,0.00,,---,0.00,VWS V14.01,2013-04-23 01:34:00,
2013-04-22 21:39:00,49.5,37.8,30.43,NE,53,0.0,4.0,64,0.00,,---,0.00,VWS V14.01,2013-04-23 01:39:00,
2013-04-22 21:44:00,49.5,37.8,30.43,East,96,3.0,4.0,64,0.00,,---,0.00,VWS V14.01,2013-04-23 01:44:00,
2013-04-22 21:49:00,49.5,37.4,30.43,SE,139,0.0,4.0,63,0.00,,---,0.00,VWS V14.01,2013-04-23 01:49:00,
2013-04-22 21:54:00,49.5,37.8,30.43,SE,143,3.0,4.0,64,0.00,,---,0.00,VWS V14.01,2013-04-23 01:54:00,
2013-04-22 21:59:00,49.4,38.1,30.43,NNW,340,1.0,6.0,65,0.00,,---,0.00,VWS V14.01,2013-04-23 01:59:00,
2013-04-22 22:04:00,49.4,38.1,30.43,ESE,108,1.0,4.0,65,0.00,,---,0.00,VWS V14.01,2013-04-23 02:04:00,
2013-04-22 22:09:00,49.3,38.0,30.43,East,101,2.0,5.0,65,0.00,,---,0.00,VWS V14.01,2013-04-23 02:09:00,
2013-04-22 22:14:00,49.3,38.0,30.43,ENE,77,1.0,7.0,65,0.00,,---,0.00,VWS V14.01,2013-04-23 02:14:00,
2013-04-22 22:19:00,49.2,38.0,30.42,ENE,77,0.0,7.0,65,0.00,,---,0.00,VWS V14.01,2013-04-23 02:19:00,
2013-04-22 22:24:00,49.1,37.9,30.42,SSW,197,0.0,7.0,65,0.00,,---,0.00,VWS V14.01,2013-04-23 02:24:00,
2013-04-22 22:29:00,49.0,38.2,30.42,North,358,1.0,7.0,66,0.00,,---,0.00,VWS V14.01,2013-04-23 02:29:00,
2013-04-22 22:34:00,48.9,38.1,30.42,NE,36,1.0,4.0,66,0.00,,---,0.00,VWS V14.01,2013-04-23 02:34:00,
2013-04-22 22:39:00,48.7,38.2,30.42,NNE,23,0.0,4.0,67,0.00,,---,0.00,VWS V14.01,2013-04-23 02:39:00,
2013-04-22 22:44:00,48.7,38.2,30.42,North,11,2.0,5.0,67,0.00,,---,0.00,VWS V14.01,2013-04-23 02:44:00,
2013-04-22 22:49:00,48.6,38.5,30.42,NE,37,2.0,5.0,68,0.00,,---,0.00,VWS V14.01,2013-04-23 02:49:00,
2013-04-22 22:54:00,48.6,38.2,30.42,North,1,1.0,5.0,67,0.00,,---,0.00,VWS V14.01,2013-04-23 02:54:00,
2013-04-22 22:59:00,48.6,38.5,30.42,North,1,0.0,5.0,68,0.00,,---,0.00,VWS V14.01,2013-04-23 02:59:00,
2013-04-22 23:04:00,48.5,38.4,30.42,ESE,119,0.0,4.0,68,0.00,,---,0.00,VWS V14.01,2013-04-23 03:04:00,
2013-04-22 23:09:00,48.4,38.3,30.42,NNW,347,1.0,5.0,68,0.00,,---,0.00,VWS V14.01,2013-04-23 03:09:00,
2013-04-22 23:14:00,48.4,38.7,30.42,SE,140,0.0,5.0,69,0.00,,---,0.00,VWS V14.01,2013-04-23 03:14:00,
2013-04-22 23:19:00,48.3,38.6,30.42,ESE,117,1.0,6.0,69,0.00,,---,0.00,VWS V14.01,2013-04-23 03:19:00,
2013-04-22 23:24:00,48.3,39.3,30.42,East,96,1.0,6.0,71,0.00,,---,0.00,VWS V14.01,2013-04-23 03:24:00,
2013-04-22 23:29:00,48.2,39.2,30.41,NE,50,1.0,6.0,71,0.00,,---,0.00,VWS V14.01,2013-04-23 03:29:00,
2013-04-22 23:34:00,48.2,39.2,30.41,ESE,107,2.0,4.0,71,0.00,,---,0.00,VWS V14.01,2013-04-23 03:34:00,
2013-04-22 23:38:00,48.2,39.2,30.41,ESE,108,0.0,4.0,71,0.00,,---,0.00,VWS V14.01,2013-04-23 03:38:00,
2013-04-22 23:43:00,48.1,39.2,30.41,ENE,69,1.0,4.0,71,0.00,,---,0.00,VWS V14.01,2013-04-23 03:43:00,
2013-04-22 23:48:00,48.1,39.5,30.41,ENE,60,0.0,4.0,72,0.00,,---,0.00,VWS V14.01,2013-04-23 03:48:00,
2013-04-22 23:53:00,48.0,39.4,30.41,ESE,111,1.0,6.0,72,0.00,,---,0.00,VWS V14.01,2013-04-23 03:53:00,
2013-04-22 23:58:00,47.9,39.7,30.41,East,91,1.0,6.0,73,0.00,,---,0.00,VWS V14.01,2013-04-23 03:58:00,